NUSANTARA LIMA (NUSANT*)

Last updated on Tue Sep 22 2026 00:03:16 GMT+0000 (Coordinated Universal Time)

1 65588U 25205A 26264.51143078 -.00000361 00000+0 00000+0 0 9994 2 65588 0.0148 359.7455 0000380 243.0195 54.5983 1.00271467 3689
UTC large
Height (km)
Speed (km/s)
/
Latitude / Longitude
Inclination (degrees)
Orbital Period (minutes)
Azimuth
Elevation
Range (km)
Doppler Factor

Next 0 passes for location: London (51.5072 / 0.1276)

No passes found over London.
NUSANTARA LIMA (NUSANT*)